This is the latest recevied weather packets stored in our database for station/object YM2KV-13. If no packets are shown the sender has not sent any weather packets the latest 10 day(s).
| Time | Temp. | Humidity | Pressure | Rain* | Wind** | Luminosity | Snow |
|---|---|---|---|---|---|---|---|
| 1777387698 | 16.11° C | 58% | 1027.8 hPa | - | - | - | - |
| 1777386498 | 16.67° C | 56% | 1027.8 hPa | - | - | - | - |
| 1777385898 | 16.67° C | 56% | 1027.9 hPa | - | - | - | - |
| 1777385297 | 17.22° C | 55% | 1027.9 hPa | - | - | - | - |
| 1777384697 | 16.67° C | 54% | 1027.8 hPa | - | - | - | - |
| 1777384097 | 17.22° C | 53% | 1027.8 hPa | - | - | - | - |
| 1777383497 | 17.22° C | 53% | 1027.9 hPa | - | - | - | - |
| 1777382897 | 17.78° C | 52% | 1027.8 hPa | - | - | - | - |
| 1777382297 | 17.78° C | 51% | 1027.9 hPa | - | - | - | - |
| 1777381697 | 17.78° C | 52% | 1027.8 hPa | - | - | - | - |
| 1777381098 | 18.33° C | 52% | 1028 hPa | - | - | - | - |
| 1777380497 | 18.33° C | 50% | 1028.1 hPa | - | - | - | - |
| 1777379897 | 18.89° C | 50% | 1028 hPa | - | - | - | - |
| 1777379297 | 19.44° C | 48% | 1028.1 hPa | - | - | - | - |
| 1777378697 | 18.89° C | 49% | 1028.2 hPa | - | - | - | - |
| 1777378097 | 18.89° C | 49% | 1028.2 hPa | - | - | - | - |
| 1777377497 | 20° C | 46% | 1028.4 hPa | - | - | - | - |
| 1777376897 | 19.44° C | 45% | 1028.4 hPa | - | - | - | - |
| 1777376297 | 20° C | 47% | 1028.5 hPa | - | - | - | - |
| 1777375697 | 20° C | 45% | 1028.4 hPa | - | - | - | - |
| 1777375098 | 20° C | 44% | 1028.5 hPa | - | - | - | - |
| 1777374497 | 20° C | 46% | 1028.4 hPa | - | - | - | - |
| 1777373897 | 19.44° C | 44% | 1028.4 hPa | - | - | - | - |
| 1777373297 | 19.44° C | 47% | 1028.4 hPa | - | - | - | - |
| 1777372697 | 20.56° C | 45% | 1028.5 hPa | - | - | - | - |
* Rain since midnight (hover to see other rain measurements)
** Current wind speed in m/s (hover to see current wind gust speed)